date,time,SUV Intensity [MED/Hr],UV Index,Daily total [MED],Since Last [MED]
23/07/2022,00:10:45,0.001,0.0,0.0,0.0
23/07/2022,00:11:47,0.000,0.0,0.0,0.0
23/07/2022,00:12:45,0.000,0.0,0.0,0.0
23/07/2022,00:13:45,-0.000,0.0,0.0,0.0
23/07/2022,00:14:45,0.001,0.0,0.0,0.0
23/07/2022,00:15:46,0.001,0.0,0.0,0.0
23/07/2022,00:16:53,0.000,0.0,0.0,0.0
23/07/2022,00:17:46,0.001,0.0,0.0,0.0
23/07/2022,00:18:54,0.001,0.0,0.0,0.0
23/07/2022,00:19:45,0.000,0.0,0.0,0.0
23/07/2022,00:20:45,0.000,0.0,0.0,0.0
23/07/2022,00:21:45,0.000,0.0,0.0,0.0
23/07/2022,00:22:46,0.000,0.0,0.0,0.0
23/07/2022,00:23:45,-0.001,0.0,0.0,0.0
23/07/2022,00:24:45,0.000,0.0,0.0,0.0
23/07/2022,00:25:46,0.000,0.0,0.0,0.0
23/07/2022,00:26:45,0.000,0.0,0.0,0.0
23/07/2022,00:27:45,-0.001,0.0,0.0,0.0
23/07/2022,00:28:45,0.001,0.0,0.0,0.0
23/07/2022,00:29:46,0.001,0.0,0.0,0.0
23/07/2022,00:30:45,0.000,0.0,0.0,0.0
23/07/2022,00:31:54,0.000,0.0,0.0,0.0
23/07/2022,00:32:45,0.000,0.0,0.0,0.0
23/07/2022,00:33:45,0.000,0.0,0.0,0.0
23/07/2022,00:34:46,-0.001,0.0,0.0,0.0
23/07/2022,00:35:45,0.000,0.0,0.0,0.0
23/07/2022,00:36:46,-0.001,0.0,0.0,0.0
23/07/2022,00:37:54,0.000,0.0,0.0,0.0
23/07/2022,00:38:46,0.000,0.0,0.0,0.0
23/07/2022,00:39:54,0.000,0.0,0.0,0.0
23/07/2022,00:40:45,0.001,0.0,0.0,0.0
23/07/2022,00:41:45,0.000,0.0,0.0,0.0
23/07/2022,00:42:45,0.000,0.0,0.0,0.0
23/07/2022,00:43:46,0.000,0.0,0.0,0.0
23/07/2022,00:44:45,0.000,0.0,0.0,0.0
23/07/2022,00:45:46,0.000,0.0,0.0,0.0
23/07/2022,00:46:54,0.000,0.0,0.0,0.0
23/07/2022,00:47:45,0.001,0.0,0.0,0.0
23/07/2022,00:48:46,0.000,0.0,0.0,0.0
23/07/2022,00:49:45,0.000,0.0,0.0,0.0
23/07/2022,00:50:45,0.001,0.0,0.0,0.0
23/07/2022,00:51:45,-0.001,0.0,0.0,0.0
23/07/2022,00:52:58,0.000,0.0,0.0,0.0
23/07/2022,00:54:46,0.000,0.0,0.0,0.0
23/07/2022,00:55:46,-0.001,0.0,0.0,0.0
23/07/2022,00:56:46,0.001,0.0,0.0,0.0
23/07/2022,00:57:45,0.000,0.0,0.0,0.0
23/07/2022,00:58:45,0.000,0.0,0.0,0.0
23/07/2022,00:59:46,0.000,0.0,0.0,0.0
23/07/2022,01:00:45,0.000,0.0,0.0,0.0
23/07/2022,01:01:53,0.000,0.0,0.0,0.0
23/07/2022,01:02:45,0.001,0.0,0.0,0.0
23/07/2022,01:03:45,0.000,0.0,0.0,0.0
23/07/2022,01:04:45,0.000,0.0,0.0,0.0
23/07/2022,01:05:46,0.000,0.0,0.0,0.0
23/07/2022,01:06:45,0.000,0.0,0.0,0.0
23/07/2022,01:07:45,0.000,0.0,0.0,0.0
23/07/2022,01:08:45,0.000,0.0,0.0,0.0
23/07/2022,01:09:54,0.000,0.0,0.0,0.0
23/07/2022,01:10:46,0.001,0.0,0.0,0.0
23/07/2022,01:11:46,0.001,0.0,0.0,0.0
23/07/2022,01:12:46,-0.000,0.0,0.0,0.0
23/07/2022,01:13:45,0.001,0.0,0.0,0.0
23/07/2022,01:14:45,0.001,0.0,0.0,0.0
23/07/2022,01:15:45,0.000,0.0,0.0,0.0
23/07/2022,01:16:46,0.000,0.0,0.0,0.0
23/07/2022,01:17:45,0.000,0.0,0.0,0.0
23/07/2022,01:18:45,0.001,0.0,0.0,0.0
23/07/2022,01:19:45,0.001,0.0,0.0,0.0
23/07/2022,01:20:46,0.001,0.0,0.0,0.0
23/07/2022,01:21:45,0.001,0.0,0.0,0.0
23/07/2022,01:22:54,0.001,0.0,0.0,0.0
23/07/2022,01:23:44,0.001,0.0,0.0,0.0
23/07/2022,01:24:45,0.001,0.0,0.0,0.0
23/07/2022,01:25:55,0.001,0.0,0.0,0.0
23/07/2022,01:26:44,0.001,0.0,0.0,0.0
23/07/2022,01:27:53,0.001,0.0,0.0,0.0
23/07/2022,01:28:46,0.001,0.0,0.0,0.0
23/07/2022,01:29:46,0.001,0.0,0.0,0.0
23/07/2022,01:30:45,0.001,0.0,0.0,0.0
23/07/2022,01:31:45,0.001,0.0,0.0,0.0
23/07/2022,01:32:45,0.000,0.0,0.0,0.0
23/07/2022,01:33:46,0.001,0.0,0.0,0.0
23/07/2022,01:34:45,0.000,0.0,0.0,0.0
23/07/2022,01:35:46,0.001,0.0,0.0,0.0
23/07/2022,01:36:45,0.001,0.0,0.0,0.0
23/07/2022,01:37:46,0.001,0.0,0.0,0.0
23/07/2022,01:38:45,0.001,0.0,0.0,0.0
23/07/2022,01:39:46,0.001,0.0,0.0,0.0
23/07/2022,01:40:45,0.001,0.0,0.0,0.0
23/07/2022,01:41:45,0.001,0.0,0.0,0.0
23/07/2022,01:42:45,0.001,0.0,0.0,0.0
23/07/2022,01:43:45,0.001,0.0,0.0,0.0
23/07/2022,01:44:46,0.001,0.0,0.0,0.0
23/07/2022,01:45:45,0.001,0.0,0.0,0.0
23/07/2022,01:46:45,0.001,0.0,0.0,0.0
23/07/2022,01:47:45,0.001,0.0,0.0,0.0
23/07/2022,01:48:46,0.001,0.0,0.0,0.0
23/07/2022,01:49:45,0.001,0.0,0.0,0.0
23/07/2022,01:50:46,0.001,0.0,0.0,0.0
23/07/2022,01:51:46,0.001,0.0,0.0,0.0
23/07/2022,01:52:53,0.001,0.0,0.0,0.0
23/07/2022,01:53:46,0.001,0.0,0.0,0.0
23/07/2022,01:54:45,0.001,0.0,0.0,0.0
23/07/2022,01:55:46,0.001,0.0,0.0,0.0
23/07/2022,01:56:46,0.001,0.0,0.0,0.0
23/07/2022,01:57:45,0.001,0.0,0.0,0.0
23/07/2022,01:58:46,0.001,0.0,0.0,0.0
23/07/2022,01:59:45,0.001,0.0,0.0,0.0
23/07/2022,02:00:45,0.001,0.0,0.0,0.0
23/07/2022,02:01:45,0.001,0.0,0.0,0.0
23/07/2022,02:02:46,0.002,0.0,0.0,0.0
23/07/2022,02:03:46,0.001,0.0,0.0,0.0
23/07/2022,02:04:45,0.001,0.0,0.0,0.0
23/07/2022,02:05:46,0.001,0.0,0.0,0.0
23/07/2022,02:06:45,0.001,0.0,0.0,0.0
23/07/2022,02:07:45,0.001,0.0,0.0,0.0
23/07/2022,02:08:45,0.001,0.0,0.0,0.0
23/07/2022,02:09:46,0.002,0.0,0.0,0.0
23/07/2022,02:10:45,0.001,0.0,0.0,0.0
23/07/2022,02:11:43,0.001,0.0,0.0,0.0
23/07/2022,02:12:45,0.001,0.0,0.0,0.0
23/07/2022,02:13:54,0.002,0.0,0.0,0.0
23/07/2022,02:14:45,0.001,0.0,0.0,0.0
23/07/2022,02:15:45,0.001,0.0,0.0,0.0
23/07/2022,02:16:54,0.001,0.0,0.0,0.0
23/07/2022,02:17:46,0.001,0.0,0.0,0.0
23/07/2022,02:18:46,0.001,0.0,0.0,0.0
23/07/2022,02:19:46,0.002,0.0,0.0,0.0
23/07/2022,02:20:45,0.001,0.0,0.0,0.0
23/07/2022,02:21:45,0.001,0.0,0.0,0.0
23/07/2022,02:22:54,0.001,0.0,0.0,0.0
23/07/2022,02:23:45,0.001,0.0,0.0,0.0
23/07/2022,02:24:46,0.001,0.0,0.0,0.0
23/07/2022,02:25:45,0.002,0.0,0.0,0.0
23/07/2022,02:26:48,0.001,0.0,0.0,0.0
23/07/2022,02:27:46,0.001,0.0,0.0,0.0
23/07/2022,02:28:46,0.001,0.0,0.0,0.0
23/07/2022,02:29:45,0.001,0.0,0.0,0.0
23/07/2022,02:30:46,0.001,0.0,0.0,0.0
23/07/2022,02:31:45,0.001,0.0,0.0,0.0
23/07/2022,02:32:46,0.002,0.0,0.0,0.0
23/07/2022,02:33:45,0.001,0.0,0.0,0.0
23/07/2022,02:34:53,0.001,0.0,0.0,0.0
23/07/2022,02:35:46,0.001,0.0,0.0,0.0
23/07/2022,02:36:45,0.001,0.0,0.0,0.0
23/07/2022,02:37:54,0.001,0.0,0.0,0.0
23/07/2022,02:38:46,0.002,0.0,0.0,0.0
23/07/2022,02:39:45,0.001,0.0,0.0,0.0
23/07/2022,02:40:54,0.002,0.0,0.0,0.0
23/07/2022,02:41:46,0.001,0.0,0.0,0.0
23/07/2022,02:42:45,0.001,0.0,0.0,0.0
23/07/2022,02:43:45,0.001,0.0,0.0,0.0
23/07/2022,02:44:46,0.001,0.0,0.0,0.0
23/07/2022,02:45:45,0.001,0.0,0.0,0.0
23/07/2022,02:46:46,0.001,0.0,0.0,0.0
23/07/2022,02:47:45,0.001,0.0,0.0,0.0
23/07/2022,02:48:46,0.001,0.0,0.0,0.0
23/07/2022,02:49:45,0.001,0.0,0.0,0.0
23/07/2022,02:50:46,0.001,0.0,0.0,0.0
23/07/2022,02:51:48,0.001,0.0,0.0,0.0
23/07/2022,02:52:45,0.001,0.0,0.0,0.0
23/07/2022,02:53:45,0.001,0.0,0.0,0.0
23/07/2022,02:54:46,0.001,0.0,0.0,0.0
23/07/2022,02:55:46,0.001,0.0,0.0,0.0
23/07/2022,02:56:45,0.002,0.0,0.0,0.0
23/07/2022,02:57:46,0.001,0.0,0.0,0.0
23/07/2022,02:58:54,0.001,0.0,0.0,0.0
23/07/2022,02:59:46,0.001,0.0,0.0,0.0
23/07/2022,03:00:45,0.002,0.0,0.0,0.0
23/07/2022,03:01:45,0.001,0.0,0.0,0.0
23/07/2022,03:02:45,0.001,0.0,0.0,0.0
23/07/2022,03:03:46,0.001,0.0,0.0,0.0
23/07/2022,03:04:45,0.001,0.0,0.0,0.0
23/07/2022,03:05:45,0.001,0.0,0.0,0.0
23/07/2022,03:06:46,0.001,0.0,0.0,0.0
23/07/2022,03:07:45,0.001,0.0,0.0,0.0
23/07/2022,03:08:54,0.001,0.0,0.0,0.0
23/07/2022,03:09:46,0.001,0.0,0.0,0.0
23/07/2022,03:10:46,0.001,0.0,0.0,0.0
23/07/2022,03:11:46,0.001,0.0,0.0,0.0
23/07/2022,03:12:45,0.001,0.0,0.0,0.0
23/07/2022,03:13:47,0.001,0.0,0.0,0.0
23/07/2022,03:14:46,0.001,0.0,0.0,0.0
23/07/2022,03:15:54,0.001,0.0,0.0,0.0
23/07/2022,03:16:45,0.001,0.0,0.0,0.0
23/07/2022,03:17:45,0.001,0.0,0.0,0.0
23/07/2022,03:18:46,0.001,0.0,0.0,0.0
23/07/2022,03:19:45,0.002,0.0,0.0,0.0
23/07/2022,03:20:46,0.001,0.0,0.0,0.0
23/07/2022,03:21:45,0.001,0.0,0.0,0.0
23/07/2022,03:22:47,0.002,0.0,0.0,0.0
23/07/2022,03:23:45,0.001,0.0,0.0,0.0
23/07/2022,03:24:46,0.001,0.0,0.0,0.0
23/07/2022,03:25:46,0.001,0.0,0.0,0.0
23/07/2022,03:26:55,0.001,0.0,0.0,0.0
23/07/2022,03:27:45,0.001,0.0,0.0,0.0
23/07/2022,03:28:46,0.001,0.0,0.0,0.0
23/07/2022,03:29:46,0.001,0.0,0.0,0.0
23/07/2022,03:30:46,0.001,0.0,0.0,0.0
23/07/2022,03:31:45,0.001,0.0,0.0,0.0
23/07/2022,03:32:45,0.001,0.0,0.0,0.0
23/07/2022,03:33:46,0.001,0.0,0.0,0.0
23/07/2022,03:34:45,0.001,0.0,0.0,0.0
23/07/2022,03:35:45,0.001,0.0,0.0,0.0
23/07/2022,03:36:47,0.001,0.0,0.0,0.0
23/07/2022,03:37:46,0.001,0.0,0.0,0.0
23/07/2022,03:38:46,0.001,0.0,0.0,0.0
23/07/2022,03:39:45,0.001,0.0,0.0,0.0
23/07/2022,03:40:45,0.001,0.0,0.0,0.0
23/07/2022,03:41:46,0.001,0.0,0.0,0.0
23/07/2022,03:42:46,0.001,0.0,0.0,0.0
23/07/2022,03:43:46,0.001,0.0,0.0,0.0
23/07/2022,03:44:46,0.001,0.0,0.0,0.0
23/07/2022,03:45:45,0.001,0.0,0.0,0.0
23/07/2022,03:46:46,0.001,0.0,0.0,0.0
23/07/2022,03:47:53,0.001,0.0,0.0,0.0
23/07/2022,03:48:46,0.002,0.0,0.0,0.0
23/07/2022,03:49:46,0.001,0.0,0.0,0.0
23/07/2022,03:50:46,0.001,0.0,0.0,0.0
23/07/2022,03:51:46,0.001,0.0,0.0,0.0
23/07/2022,03:52:46,0.001,0.0,0.0,0.0
23/07/2022,03:53:45,0.001,0.0,0.0,0.0
23/07/2022,03:54:45,0.001,0.0,0.0,0.0
23/07/2022,03:55:45,0.001,0.0,0.0,0.0
23/07/2022,03:56:46,0.001,0.0,0.0,0.0
23/07/2022,03:57:45,0.001,0.0,0.0,0.0
23/07/2022,03:58:46,0.001,0.0,0.0,0.0
23/07/2022,03:59:45,0.001,0.0,0.0,0.0
23/07/2022,04:00:54,0.001,0.0,0.0,0.0
23/07/2022,04:01:46,0.002,0.0,0.0,0.0
23/07/2022,04:02:45,0.001,0.0,0.0,0.0
23/07/2022,04:03:46,0.001,0.0,0.0,0.0
23/07/2022,04:04:46,0.002,0.0,0.0,0.0
23/07/2022,04:05:45,0.001,0.0,0.0,0.0
23/07/2022,04:06:46,0.001,0.0,0.0,0.0
23/07/2022,04:07:46,0.001,0.0,0.0,0.0
23/07/2022,04:08:46,0.001,0.0,0.0,0.0
23/07/2022,04:09:45,0.001,0.0,0.0,0.0
23/07/2022,04:10:45,0.001,0.0,0.0,0.0
23/07/2022,04:11:46,0.001,0.0,0.0,0.0
23/07/2022,04:12:46,0.002,0.0,0.0,0.0
23/07/2022,04:13:46,0.001,0.0,0.0,0.0
23/07/2022,04:14:46,0.001,0.0,0.0,0.0
23/07/2022,04:15:46,0.002,0.0,0.0,0.0
23/07/2022,04:16:46,0.001,0.0,0.0,0.0
23/07/2022,04:17:45,0.001,0.0,0.0,0.0
23/07/2022,04:18:54,0.001,0.0,0.0,0.0
23/07/2022,04:19:46,0.001,0.0,0.0,0.0
23/07/2022,04:20:46,0.002,0.0,0.0,0.0
23/07/2022,04:21:46,0.002,0.0,0.0,0.0
23/07/2022,04:22:45,0.002,0.0,0.0,0.0
23/07/2022,04:23:46,0.001,0.0,0.0,0.0
23/07/2022,04:24:46,0.003,0.0,0.0,0.0
23/07/2022,04:25:45,0.001,0.0,0.0,0.0
23/07/2022,04:26:46,0.002,0.0,0.0,0.0
23/07/2022,04:27:58,0.002,0.0,0.0,0.0
23/07/2022,04:29:46,0.002,0.0,0.0,0.0
23/07/2022,04:30:39,0.002,0.0,0.0,0.0
23/07/2022,04:31:46,0.003,0.0,0.0,0.0
23/07/2022,04:32:46,0.002,0.0,0.0,0.0
23/07/2022,04:33:45,0.002,0.0,0.0,0.0
23/07/2022,04:34:46,0.003,0.0,0.0,0.0
23/07/2022,04:35:45,0.001,0.0,0.0,0.0
23/07/2022,04:36:54,0.002,0.0,0.0,0.0
23/07/2022,04:37:46,0.002,0.0,0.0,0.0
23/07/2022,04:38:46,0.004,0.0,0.0,0.0
23/07/2022,04:39:46,0.003,0.0,0.0,0.0
23/07/2022,04:40:46,0.003,0.0,0.0,0.0
23/07/2022,04:41:46,0.003,0.0,0.0,0.0
23/07/2022,04:42:45,0.003,0.0,0.0,0.0
23/07/2022,04:43:47,0.004,0.0,0.0,0.0
23/07/2022,04:44:46,0.004,0.0,0.0,0.0
23/07/2022,04:45:45,0.004,0.0,0.0,0.0
23/07/2022,04:46:47,0.005,0.0,0.0,0.0
23/07/2022,04:47:45,0.006,0.0,0.0,0.0
23/07/2022,04:48:46,0.006,0.0,0.0,0.0
23/07/2022,04:49:45,0.006,0.0,0.0,0.0
23/07/2022,04:50:46,0.005,0.0,0.0,0.0
23/07/2022,04:51:46,0.006,0.0,0.0,0.0
23/07/2022,04:53:02,0.008,0.0,0.0,0.0
23/07/2022,04:54:46,0.006,0.0,0.0,0.0
23/07/2022,04:55:46,0.007,0.0,0.001,0.001
23/07/2022,04:56:46,0.006,0.0,0.001,0.0
23/07/2022,04:57:46,0.007,0.0,0.001,0.0
23/07/2022,04:58:46,0.007,0.0,0.001,0.0
23/07/2022,04:59:48,0.008,0.0,0.001,0.0
23/07/2022,05:00:46,0.007,0.0,0.001,0.0
23/07/2022,05:01:46,0.008,0.0,0.001,0.0
23/07/2022,05:02:46,0.007,0.0,0.001,0.0
23/07/2022,05:03:45,0.008,0.0,0.001,0.0
23/07/2022,05:04:46,0.008,0.0,0.002,0.001
23/07/2022,05:05:45,0.008,0.0,0.002,0.0
23/07/2022,05:06:46,0.008,0.0,0.002,0.0
23/07/2022,05:07:54,0.009,0.0,0.002,0.0
23/07/2022,05:08:45,0.009,0.0,0.002,0.0
23/07/2022,05:09:46,0.009,0.0,0.002,0.0
23/07/2022,05:10:46,0.011,0.0,0.002,0.0
23/07/2022,05:11:46,0.011,0.0,0.003,0.001
23/07/2022,05:12:46,0.012,0.0,0.003,0.0
23/07/2022,05:13:54,0.011,0.0,0.003,0.0
23/07/2022,05:14:45,0.011,0.0,0.003,0.0
23/07/2022,05:15:46,0.011,0.0,0.003,0.0
23/07/2022,05:16:46,0.011,0.0,0.003,0.0
23/07/2022,05:17:45,0.012,0.0,0.004,0.001
23/07/2022,05:18:45,0.013,0.0,0.004,0.0
23/07/2022,05:19:46,0.013,0.0,0.004,0.0
23/07/2022,05:20:45,0.013,0.0,0.004,0.0
23/07/2022,05:21:46,0.013,0.0,0.005,0.001
23/07/2022,05:22:46,0.012,0.0,0.005,0.0
23/07/2022,05:23:54,0.012,0.0,0.005,0.0
23/07/2022,05:24:46,0.013,0.0,0.005,0.0
23/07/2022,05:25:46,0.014,0.0,0.005,0.0
23/07/2022,05:26:46,0.016,0.0,0.006,0.001
23/07/2022,05:27:46,0.016,0.0,0.006,0.0
23/07/2022,05:28:46,0.016,0.0,0.006,0.0
23/07/2022,05:29:46,0.017,0.0,0.006,0.0
23/07/2022,05:30:45,0.018,0.0,0.007,0.001
23/07/2022,05:31:46,0.018,0.0,0.007,0.0
23/07/2022,05:32:45,0.020,0.0,0.007,0.0
23/07/2022,05:33:46,0.020,0.0,0.008,0.001
23/07/2022,05:34:46,0.021,0.0,0.008,0.0
23/07/2022,05:35:45,0.022,0.0,0.008,0.0
23/07/2022,05:36:53,0.022,0.0,0.009,0.001
23/07/2022,05:37:46,0.022,0.0,0.009,0.0
23/07/2022,05:38:54,0.023,0.0,0.01,0.001
23/07/2022,05:39:46,0.022,0.0,0.01,0.0
23/07/2022,05:40:46,0.021,0.0,0.01,0.0
23/07/2022,05:41:56,0.021,0.0,0.011,0.001
23/07/2022,05:42:45,0.021,0.0,0.011,0.0
23/07/2022,05:43:46,0.020,0.0,0.011,0.0
23/07/2022,05:44:54,0.021,0.0,0.012,0.001
23/07/2022,05:45:46,0.021,0.0,0.012,0.0
23/07/2022,05:46:46,0.021,0.0,0.012,0.0
23/07/2022,05:47:45,0.022,0.0,0.013,0.001
23/07/2022,05:48:46,0.023,0.0,0.013,0.0
23/07/2022,05:49:46,0.026,0.0,0.014,0.001
23/07/2022,05:50:45,0.027,0.0,0.014,0.0
23/07/2022,05:51:46,0.028,0.0,0.014,0.0
23/07/2022,05:52:46,0.028,0.0,0.015,0.001
23/07/2022,05:53:46,0.029,0.0,0.015,0.0
23/07/2022,05:54:46,0.030,0.0,0.016,0.001
23/07/2022,05:55:46,0.030,0.0,0.016,0.0
23/07/2022,05:56:45,0.030,0.0,0.017,0.001
23/07/2022,05:57:55,0.028,0.0,0.017,0.0
23/07/2022,05:58:46,0.029,0.0,0.018,0.001
23/07/2022,05:59:46,0.029,0.0,0.018,0.0
23/07/2022,06:00:46,0.030,0.0,0.019,0.001
23/07/2022,06:01:46,0.030,0.0,0.019,0.0
23/07/2022,06:02:46,0.030,0.0,0.02,0.001
23/07/2022,06:03:46,0.031,0.0,0.02,0.0
23/07/2022,06:04:46,0.034,0.0,0.021,0.001
23/07/2022,06:05:45,0.037,0.0,0.021,0.0
23/07/2022,06:06:46,0.039,0.0,0.022,0.001
23/07/2022,06:07:46,0.042,0.0,0.023,0.001
23/07/2022,06:08:54,0.045,0.0,0.024,0.001
23/07/2022,06:09:46,0.047,0.0,0.024,0.0
23/07/2022,06:10:46,0.047,0.0,0.025,0.001
23/07/2022,06:11:46,0.046,0.0,0.026,0.001
23/07/2022,06:12:54,0.047,0.0,0.027,0.001
23/07/2022,06:13:46,0.050,0.0,0.027,0.0
23/07/2022,06:14:46,0.053,0.0,0.028,0.001
23/07/2022,06:15:54,0.053,0.0,0.029,0.001
23/07/2022,06:16:46,0.052,0.0,0.03,0.001
23/07/2022,06:17:46,0.053,0.0,0.031,0.001
23/07/2022,06:18:54,0.053,0.0,0.032,0.001
23/07/2022,06:19:45,0.053,0.0,0.033,0.001
23/07/2022,06:20:46,0.054,0.0,0.034,0.001
23/07/2022,06:21:46,0.057,0.0,0.034,0.0
23/07/2022,06:22:46,0.059,0.0,0.035,0.001
23/07/2022,06:23:46,0.064,0.0,0.037,0.002
23/07/2022,06:24:45,0.068,0.0,0.038,0.001
23/07/2022,06:25:46,0.072,0.0,0.039,0.001
23/07/2022,06:26:46,0.074,0.0,0.04,0.001
23/07/2022,06:27:46,0.075,0.0,0.041,0.001
23/07/2022,06:28:46,0.076,0.0,0.043,0.002
23/07/2022,06:29:45,0.080,0.0,0.044,0.001
23/07/2022,06:30:46,0.087,0.0,0.045,0.001
23/07/2022,06:31:39,0.092,0.0,0.047,0.002
23/07/2022,06:32:47,0.096,0.0,0.048,0.001
23/07/2022,06:33:55,0.093,0.0,0.05,0.002
23/07/2022,06:34:46,0.093,0.0,0.051,0.001
23/07/2022,06:35:46,0.095,0.0,0.053,0.002
23/07/2022,06:36:46,0.098,0.0,0.055,0.002
23/07/2022,06:37:46,0.101,0.0,0.056,0.001
23/07/2022,06:38:46,0.103,0.0,0.058,0.002
23/07/2022,06:39:46,0.104,0.0,0.06,0.002
23/07/2022,06:40:46,0.106,0.0,0.061,0.001
23/07/2022,06:41:46,0.108,0.0,0.063,0.002
23/07/2022,06:42:46,0.106,0.0,0.065,0.002
23/07/2022,06:43:55,0.104,0.0,0.067,0.002
23/07/2022,06:44:54,0.104,0.0,0.069,0.002
23/07/2022,06:45:46,0.108,0.0,0.07,0.001
23/07/2022,06:46:46,0.114,0.0,0.072,0.002
23/07/2022,06:47:46,0.122,0.0,0.074,0.002
23/07/2022,06:48:46,0.126,0.0,0.076,0.002
23/07/2022,06:49:54,0.128,0.0,0.079,0.003
23/07/2022,06:50:46,0.130,0.0,0.08,0.001
23/07/2022,06:51:48,0.133,0.0,0.083,0.003
23/07/2022,06:52:46,0.136,0.0,0.085,0.002
23/07/2022,06:53:45,0.141,0.0,0.087,0.002
23/07/2022,06:54:46,0.149,0.0,0.09,0.003
23/07/2022,06:55:46,0.149,0.0,0.092,0.002
23/07/2022,06:56:46,0.149,0.0,0.094,0.002
23/07/2022,06:57:46,0.144,0.0,0.097,0.003
23/07/2022,06:58:46,0.143,0.0,0.099,0.002
23/07/2022,06:59:46,0.144,0.0,0.102,0.003
23/07/2022,07:00:46,0.149,0.0,0.104,0.002
23/07/2022,07:01:46,0.152,0.0,0.107,0.003
23/07/2022,07:02:46,0.151,0.0,0.109,0.002
23/07/2022,07:03:45,0.150,0.0,0.112,0.003
23/07/2022,07:04:54,0.147,0.0,0.115,0.003
23/07/2022,07:05:45,0.143,0.0,0.117,0.002
23/07/2022,07:06:47,0.138,0.0,0.119,0.002
23/07/2022,07:07:54,0.136,0.0,0.122,0.003
23/07/2022,07:08:46,0.138,0.0,0.124,0.002
23/07/2022,07:09:46,0.143,0.0,0.126,0.002
23/07/2022,07:10:46,0.151,0.0,0.128,0.002
23/07/2022,07:11:46,0.163,0.0,0.131,0.003
23/07/2022,07:12:46,0.171,0.0,0.134,0.003
23/07/2022,07:13:46,0.175,0.0,0.137,0.003
23/07/2022,07:14:46,0.177,0.0,0.14,0.003
23/07/2022,07:15:46,0.180,0.0,0.143,0.003
23/07/2022,07:16:46,0.183,0.0,0.146,0.003
23/07/2022,07:17:46,0.193,0.0,0.149,0.003
23/07/2022,07:18:46,0.198,0.0,0.152,0.003
23/07/2022,07:19:46,0.202,0.0,0.155,0.003
23/07/2022,07:20:46,0.212,0.0,0.159,0.004
23/07/2022,07:21:46,0.219,1.0,0.162,0.003
23/07/2022,07:22:46,0.224,1.0,0.166,0.004
23/07/2022,07:23:55,0.231,1.0,0.17,0.004
23/07/2022,07:24:46,0.240,1.0,0.174,0.004
23/07/2022,07:25:46,0.251,1.0,0.178,0.004
23/07/2022,07:26:46,0.267,1.0,0.182,0.004
23/07/2022,07:27:46,0.283,1.0,0.187,0.005
23/07/2022,07:28:46,0.307,1.0,0.192,0.005
23/07/2022,07:29:46,0.333,1.0,0.197,0.005
23/07/2022,07:30:46,0.352,1.0,0.203,0.006
23/07/2022,07:31:46,0.363,1.0,0.209,0.006
23/07/2022,07:32:46,0.400,1.0,0.215,0.006
23/07/2022,07:33:46,0.388,1.0,0.221,0.006
23/07/2022,07:34:46,0.381,1.0,0.228,0.007
23/07/2022,07:35:46,0.397,1.0,0.234,0.006
23/07/2022,07:36:46,0.405,1.0,0.241,0.007
23/07/2022,07:37:46,0.410,1.0,0.248,0.007
23/07/2022,07:38:55,0.423,1.0,0.256,0.008
23/07/2022,07:39:46,0.430,1.0,0.262,0.006
23/07/2022,07:40:46,0.394,1.0,0.269,0.007
23/07/2022,07:41:46,0.418,1.0,0.276,0.007
23/07/2022,07:42:46,0.404,1.0,0.283,0.007
23/07/2022,07:43:46,0.454,1.0,0.29,0.007
23/07/2022,07:44:46,0.464,1.0,0.297,0.007
23/07/2022,07:45:46,0.465,1.0,0.305,0.008
23/07/2022,07:46:46,0.469,1.0,0.313,0.008
23/07/2022,07:47:46,0.487,1.0,0.321,0.008
23/07/2022,07:48:47,0.496,1.0,0.329,0.008
23/07/2022,07:49:46,0.497,1.0,0.337,0.008
23/07/2022,07:50:46,0.513,1.0,0.346,0.009
23/07/2022,07:51:46,0.531,1.0,0.355,0.009
23/07/2022,07:52:46,0.504,1.0,0.363,0.008
23/07/2022,07:53:46,0.477,1.0,0.371,0.008
23/07/2022,07:54:46,0.476,1.0,0.379,0.008
23/07/2022,07:55:46,0.481,1.0,0.387,0.008
23/07/2022,07:56:54,0.516,1.0,0.397,0.01
23/07/2022,07:57:46,0.474,1.0,0.404,0.007
23/07/2022,07:58:46,0.470,1.0,0.412,0.008
23/07/2022,07:59:46,0.472,1.0,0.42,0.008
23/07/2022,08:00:46,0.583,1.0,0.428,0.008
23/07/2022,08:01:46,0.601,1.0,0.438,0.01
23/07/2022,08:02:46,0.606,1.0,0.448,0.01
23/07/2022,08:03:46,0.537,1.0,0.457,0.009
23/07/2022,08:04:46,0.479,1.0,0.466,0.009
23/07/2022,08:05:46,0.448,1.0,0.474,0.008
23/07/2022,08:06:55,0.464,1.0,0.482,0.008
23/07/2022,08:07:46,0.474,1.0,0.489,0.007
23/07/2022,08:08:47,0.490,1.0,0.497,0.008
23/07/2022,08:09:46,0.590,1.0,0.507,0.01
23/07/2022,08:10:46,0.486,1.0,0.515,0.008
23/07/2022,08:11:46,0.491,1.0,0.524,0.009
23/07/2022,08:12:46,0.505,1.0,0.532,0.008
23/07/2022,08:13:46,0.523,1.0,0.541,0.009
23/07/2022,08:14:46,0.604,1.0,0.55,0.009
23/07/2022,08:15:46,0.550,1.0,0.56,0.01
23/07/2022,08:16:46,0.629,1.0,0.569,0.009
23/07/2022,08:17:46,0.697,2.0,0.581,0.012
23/07/2022,08:18:46,0.727,2.0,0.592,0.011
23/07/2022,08:19:46,0.611,1.0,0.604,0.012
23/07/2022,08:20:46,0.745,2.0,0.616,0.012
23/07/2022,08:21:46,0.729,2.0,0.628,0.012
23/07/2022,08:22:46,0.575,1.0,0.638,0.01
23/07/2022,08:23:46,0.565,1.0,0.647,0.009
23/07/2022,08:24:55,0.587,1.0,0.658,0.011
23/07/2022,08:25:46,0.595,1.0,0.667,0.009
23/07/2022,08:26:46,0.789,2.0,0.679,0.012
23/07/2022,08:27:54,0.832,2.0,0.694,0.015
23/07/2022,08:28:46,0.839,2.0,0.706,0.012
23/07/2022,08:29:46,0.857,2.0,0.72,0.014
23/07/2022,08:30:46,0.867,2.0,0.735,0.015
23/07/2022,08:31:47,0.875,2.0,0.749,0.014
23/07/2022,08:32:58,0.879,2.0,0.767,0.018
23/07/2022,08:34:46,0.878,2.0,0.793,0.026
23/07/2022,08:35:46,0.877,2.0,0.808,0.015
23/07/2022,08:36:46,0.884,2.0,0.823,0.015
23/07/2022,08:37:46,0.875,2.0,0.837,0.014
23/07/2022,08:38:46,0.878,2.0,0.852,0.015
23/07/2022,08:39:46,0.878,2.0,0.867,0.015
23/07/2022,08:40:46,0.875,2.0,0.881,0.014
23/07/2022,08:41:47,0.885,2.0,0.896,0.015
23/07/2022,08:42:54,0.916,2.0,0.913,0.017
23/07/2022,08:43:46,0.935,2.0,0.926,0.013
23/07/2022,08:44:46,0.945,2.0,0.942,0.016
23/07/2022,08:45:47,0.925,2.0,0.957,0.015
23/07/2022,08:46:46,0.958,2.0,0.973,0.016
23/07/2022,08:47:47,0.982,2.0,0.989,0.016
23/07/2022,08:48:54,0.980,2.0,1.007,0.018
23/07/2022,08:49:46,0.979,2.0,1.022,0.015
23/07/2022,08:50:48,0.991,2.0,1.039,0.017
23/07/2022,08:51:46,1.009,2.0,1.055,0.016
23/07/2022,08:52:46,0.981,2.0,1.071,0.016
23/07/2022,08:53:46,1.014,2.0,1.088,0.017
23/07/2022,08:54:46,1.012,2.0,1.105,0.017
23/07/2022,08:55:46,1.055,2.0,1.122,0.017
23/07/2022,08:56:46,1.067,2.0,1.14,0.018
23/07/2022,08:57:46,1.053,2.0,1.157,0.017
23/07/2022,08:58:46,1.039,2.0,1.175,0.018
23/07/2022,08:59:46,1.073,2.0,1.192,0.017
23/07/2022,09:00:46,1.093,3.0,1.211,0.019
23/07/2022,09:01:46,1.090,3.0,1.229,0.018
23/07/2022,09:02:46,1.087,2.0,1.247,0.018
23/07/2022,09:03:56,1.116,3.0,1.268,0.021
23/07/2022,09:04:46,1.132,3.0,1.284,0.016
23/07/2022,09:05:46,1.138,3.0,1.302,0.018
23/07/2022,09:06:46,1.138,3.0,1.321,0.019
23/07/2022,09:07:46,1.102,3.0,1.34,0.019
23/07/2022,09:08:46,1.100,3.0,1.358,0.018
23/07/2022,09:09:37,1.129,3.0,1.374,0.016
23/07/2022,09:10:47,1.138,3.0,1.396,0.022
23/07/2022,09:11:46,1.151,3.0,1.415,0.019
23/07/2022,09:12:46,1.179,3.0,1.434,0.019
23/07/2022,09:13:46,1.192,3.0,1.454,0.02
23/07/2022,09:14:46,1.131,3.0,1.474,0.02
23/07/2022,09:15:46,1.185,3.0,1.493,0.019
23/07/2022,09:16:55,1.224,3.0,1.515,0.022
23/07/2022,09:17:46,1.309,3.0,1.534,0.019
23/07/2022,09:18:46,1.253,3.0,1.556,0.022
23/07/2022,09:19:46,1.148,3.0,1.576,0.02
23/07/2022,09:20:47,1.004,2.0,1.594,0.018
23/07/2022,09:21:46,1.263,3.0,1.613,0.019
23/07/2022,09:22:54,1.199,3.0,1.636,0.023
23/07/2022,09:23:46,1.212,3.0,1.653,0.017
23/07/2022,09:24:47,1.098,3.0,1.673,0.02
23/07/2022,09:25:46,1.104,3.0,1.691,0.018
23/07/2022,09:26:46,1.122,3.0,1.71,0.019
23/07/2022,09:27:55,1.134,3.0,1.731,0.021
23/07/2022,09:28:46,1.169,3.0,1.748,0.017
23/07/2022,09:29:46,1.268,3.0,1.767,0.019
23/07/2022,09:30:46,1.303,3.0,1.789,0.022
23/07/2022,09:31:46,1.263,3.0,1.811,0.022
23/07/2022,09:32:40,1.353,3.0,1.831,0.02
23/07/2022,09:33:47,1.325,3.0,1.856,0.025
23/07/2022,09:34:47,1.267,3.0,1.877,0.021
23/07/2022,09:35:46,1.292,3.0,1.898,0.021
23/07/2022,09:36:48,1.430,3.0,1.921,0.023
23/07/2022,09:37:46,1.416,3.0,1.943,0.022
23/07/2022,09:38:46,1.359,3.0,1.966,0.023
23/07/2022,09:39:47,1.325,3.0,1.988,0.022
23/07/2022,09:40:54,1.283,3.0,2.013,0.025
23/07/2022,09:41:46,1.253,3.0,2.032,0.019
23/07/2022,09:42:46,1.258,3.0,2.052,0.02
23/07/2022,09:43:46,1.288,3.0,2.074,0.022
23/07/2022,09:44:46,1.325,3.0,2.095,0.021
23/07/2022,09:45:47,1.218,3.0,2.116,0.021
23/07/2022,09:46:54,1.178,3.0,2.139,0.023
23/07/2022,09:47:47,1.198,3.0,2.156,0.017
23/07/2022,09:48:47,1.225,3.0,2.176,0.02
23/07/2022,09:49:53,1.263,3.0,2.199,0.023
23/07/2022,09:50:46,1.295,3.0,2.219,0.02
23/07/2022,09:51:46,1.350,3.0,2.241,0.022
23/07/2022,09:52:55,1.249,3.0,2.265,0.024
23/07/2022,09:53:46,1.359,3.0,2.284,0.019
23/07/2022,09:54:46,1.456,3.0,2.307,0.023
23/07/2022,09:55:46,1.546,4.0,2.332,0.025
23/07/2022,09:56:46,1.451,3.0,2.357,0.025
23/07/2022,09:57:46,1.332,3.0,2.38,0.023
23/07/2022,09:58:46,1.366,3.0,2.402,0.022
23/07/2022,09:59:47,1.482,3.0,2.425,0.023
23/07/2022,10:00:46,1.424,3.0,2.449,0.024
23/07/2022,10:01:46,1.330,3.0,2.472,0.023
23/07/2022,10:02:47,1.572,4.0,2.497,0.025
23/07/2022,10:03:47,1.747,4.0,2.524,0.027
23/07/2022,10:04:46,1.750,4.0,2.553,0.029
23/07/2022,10:05:46,1.752,4.0,2.582,0.029
23/07/2022,10:06:46,1.646,4.0,2.611,0.029
23/07/2022,10:07:46,1.731,4.0,2.64,0.029
23/07/2022,10:08:47,1.760,4.0,2.668,0.028
23/07/2022,10:09:46,1.781,4.0,2.698,0.03
23/07/2022,10:10:55,1.781,4.0,2.731,0.033
23/07/2022,10:11:46,1.791,4.0,2.757,0.026
23/07/2022,10:12:46,1.793,4.0,2.787,0.03